Waarnemingen

Advertentie
Mijn weer
Leeuwarden, Nederland (6270): temperatuur & dauwpunt: 14.10.2018 15:00:00 - 20.10.2018 15:00:00 (CEST)Leeuwarden, Nederland (6270): temperatuur 5cm: 14.10.2018 15:00:00 - 20.10.2018 15:00:00 (CEST)Leeuwarden, Nederland (6270): windsnelheid & windstoten: 14.10.2018 15:00:00 - 20.10.2018 15:00:00 (CEST)Leeuwarden, Nederland (6270): windrichting: 14.10.2018 15:00:00 - 20.10.2018 15:00:00 (CEST)Leeuwarden, Nederland (6270): luchtdruk: 14.10.2018 15:00:00 - 20.10.2018 15:00:00 (CEST)Leeuwarden, Nederland (6270): zicht: 14.10.2018 15:00:00 - 20.10.2018 15:00:00 (CEST)Leeuwarden, Nederland (6270): neerslag: 14.10.2018 15:00:00 - 20.10.2018 15:00:00 (CEST)
Datum & Tijd tt [°C] td [°C] tt 5cm [°C] ff [km/u] ff [kn] fx [km/u] fx [kn] dd ppp [hPa] vv [km] rr [mm]
20.10.2018 15:00:00 15,5 9,8 15,3 21 11 29 16 W 1030,2 10 0,0
20.10.2018 14:00:00 15,2 10,4 15,3 21 11 32 18 W 1030,2 10 0,0
20.10.2018 13:00:00 14,9 11,0 15,2 21 11 29 16 W 1030,5 10 0,0
20.10.2018 12:00:00 14,5 10,3 14,7 21 11 29 16 W 1030,5 10 0,0
20.10.2018 11:00:00 14,0 10,9 14,1 16 9 22 12 WZW 1030,2 10 0,0
20.10.2018 10:00:00 10,7 9,3 10,2 11 6 14 8 ZW 1029,7 10 0,0
20.10.2018 09:00:00 8,9 7,5 8,2 9 5 14 8 ZZW 1029,1 10 0,0
20.10.2018 08:00:00 8,3 7,1 7,8 11 6 14 8 Z 1028,9 10 0,0
20.10.2018 07:00:00 7,0 6,0 6,2 11 6 14 8 Z 1029,0 9 0,0
20.10.2018 06:00:00 7,0 5,4 6,3 9 5 11 6 Z 1028,8 10 0,0
20.10.2018 05:00:00 6,2 5,3 5,4 4 2 14 8 ZZW 1028,3 10 0,0
20.10.2018 04:00:00 6,3 4,7 4,9 9 5 14 8 Z 1027,9 10 0,0
20.10.2018 03:00:00 6,5 5,1 5,7 9 5 14 8 Z 1027,7 10 0,0
20.10.2018 02:00:00 5,5 4,8 5,1 8 4 11 6 ZW 1027,8 10 0,0
20.10.2018 01:00:00 4,4 3,6 1,7 5 3 7 4 Z 1027,9 10 0,0
20.10.2018 00:00:00 3,7 3,1 -0,7 4 2 7 4 W 1027,6 10 0,0
19.10.2018 23:00:00 3,7 3,3 -0,3 2 1 4 2 ZO 1027,7 10 0,0
19.10.2018 22:00:00 5,0 3,9 0,4 2 1 4 2 NNO 1027,3 10 0,0
19.10.2018 21:00:00 5,6 4,1 1,1 2 1 4 2 NNO 1027,1 10 0,0
19.10.2018 20:00:00 7,6 4,3 4,1 5 3 11 6 O 1026,7 10 0,0
19.10.2018 19:00:00 9,2 5,0 4,1 5 3 7 4 ONO 1026,4 10 0,0
19.10.2018 18:00:00 9,0 5,0 7,7 8 4 14 8 NNO 1026,1 10 0,0
19.10.2018 17:00:00 12,2 5,2 12,5 4 2 11 6 - 1025,5 10 0,0
19.10.2018 16:00:00 12,8 4,6 12,9 8 4 11 6 NO 1025,8 10 0,0
19.10.2018 15:00:00 12,9 4,5 13,9 8 4 14 8 - 1026,2 10 0,0
19.10.2018 14:00:00 12,0 5,1 12,2 8 4 14 8 O 1026,6 10 0,0
19.10.2018 13:00:00 11,8 4,9 12,1 13 7 22 12 ONO 1026,9 10 0,0
19.10.2018 12:00:00 11,5 5,1 11,8 15 8 22 12 O 1026,8 10 0,0
19.10.2018 11:00:00 11,0 5,9 10,9 9 5 18 10 O 1026,9 10 0,0
19.10.2018 10:00:00 9,8 6,1 9,1 8 4 11 6 ZO 1027,0 10 0,0
19.10.2018 09:00:00 10,2 5,7 9,4 8 4 14 8 OZO 1026,8 10 0,0
19.10.2018 08:00:00 9,7 4,3 6,1 8 4 14 8 O 1026,8 10 0,0
19.10.2018 07:00:00 6,8 3,8 4,5 4 2 14 8 - 1026,5 10 0,0
19.10.2018 06:00:00 9,3 5,4 7,0 11 6 14 8 O 1026,3 10 0,0
19.10.2018 05:00:00 10,2 5,2 8,4 8 4 11 6 OZO 1026,5 10 0,0
19.10.2018 04:00:00 9,8 5,8 8,0 8 4 11 6 O 1026,7 10 0,0
19.10.2018 03:00:00 9,2 6,0 7,3 5 3 11 6 O 1026,7 10 0,0
19.10.2018 02:00:00 9,4 6,0 7,2 8 4 11 6 O 1026,8 10 0,0
19.10.2018 01:00:00 8,9 6,2 6,8 11 6 14 8 O 1026,9 10 0,0
19.10.2018 00:00:00 8,9 6,5 2,7 5 3 11 6 O 1027,3 10 0,0
18.10.2018 23:00:00 7,9 6,6 4,3 5 3 7 4 ONO 1027,2 10 0,0
18.10.2018 22:00:00 10,2 7,9 8,2 5 3 14 8 ONO 1027,2 10 0,0
18.10.2018 21:00:00 10,2 8,0 8,7 8 4 14 8 ONO 1026,7 10 0,0
18.10.2018 20:00:00 10,2 7,8 5,8 8 4 11 6 ONO 1026,6 10 0,0
18.10.2018 19:00:00 8,4 6,7 6,6 9 5 14 8 NNO 1026,3 10 0,0
18.10.2018 18:00:00 12,7 8,6 11,5 13 7 25 14 NO 1025,8 10 0,0
18.10.2018 17:00:00 13,9 9,1 13,8 15 8 29 16 NO 1025,8 10 0,0
18.10.2018 16:00:00 14,1 9,1 13,6 21 11 32 18 NO 1025,7 10 0,0
18.10.2018 15:00:00 14,3 8,7 14,1 21 11 29 16 NNO 1025,7 10 0,0
18.10.2018 14:00:00 14,9 9,6 15,4 15 8 25 14 NNO 1025,7 10 0,0
18.10.2018 13:00:00 14,6 9,5 14,4 16 9 25 14 N 1026,1 10 0,0
18.10.2018 12:00:00 13,8 9,3 13,7 16 9 25 14 NNO 1025,9 10 0,0
18.10.2018 11:00:00 13,3 9,6 13,2 15 8 25 14 N 1025,7 10 0,0
18.10.2018 10:00:00 13,3 10,4 12,9 16 9 25 14 NNO 1025,1 10 0,0
18.10.2018 09:00:00 12,3 9,8 11,3 11 6 22 12 N 1024,6 10 0,0
18.10.2018 08:00:00 11,9 10,4 10,2 13 7 22 12 N 1024,1 10 0,0
18.10.2018 07:00:00 10,9 9,9 9,4 11 6 14 8 N 1023,5 10 0,0
18.10.2018 06:00:00 11,7 10,1 10,7 11 6 18 10 N 1023,1 10 0,0
18.10.2018 05:00:00 12,3 11,1 11,4 13 7 18 10 N 1023,0 10 0,0
18.10.2018 04:00:00 11,4 10,5 10,4 11 6 18 10 NNW 1022,8 10 0,0
18.10.2018 03:00:00 13,3 11,7 12,9 16 9 25 14 NNW 1022,6 10 0,1
18.10.2018 02:00:00 13,6 13,1 13,5 18 10 25 14 NNW 1022,5 5 0,0
18.10.2018 01:00:00 12,8 12,0 12,6 4 2 7 4 W 1022,1 10 0,0
18.10.2018 00:00:00 12,9 11,7 12,3 2 1 7 4 - 1021,9 10 0,0
17.10.2018 23:00:00 12,3 11,2 11,7 2 1 4 2 WNW 1021,6 10 0,0
17.10.2018 22:00:00 10,9 10,4 8,5 2 1 7 4 WNW 1021,3 10 0,0
17.10.2018 21:00:00 10,8 10,6 6,6 4 2 7 4 WNW 1021,0 10 0,0
17.10.2018 20:00:00 11,3 10,8 7,3 4 2 7 4 - 1020,7 10 0,0
17.10.2018 19:00:00 11,4 10,2 9,2 5 3 11 6 NW 1020,1 10 0,0
17.10.2018 18:00:00 14,7 11,8 14,1 9 5 18 10 WNW 1019,9 10 0,0
17.10.2018 17:00:00 16,1 12,0 16,1 13 7 22 12 W 1019,7 10 0,0
17.10.2018 16:00:00 16,4 13,1 16,6 15 8 29 16 W 1019,5 10 0,0
17.10.2018 15:00:00 18,2 12,4 18,8 18 10 29 16 W 1019,1 10 0,0
17.10.2018 14:00:00 18,3 13,0 19,3 18 10 25 14 W 1019,0 10 0,0
17.10.2018 13:00:00 18,1 12,5 18,8 15 8 25 14 ZW 1018,9 10 0,0
17.10.2018 12:00:00 17,9 13,2 18,1 15 8 22 12 WZW 1018,9 10 0,0
17.10.2018 11:00:00 16,8 15,0 17,5 11 6 18 10 WZW 1018,6 5 0,0
17.10.2018 10:00:00 14,5 13,8 14,5 8 4 14 8 ZW 1018,3 3,0 0,0
17.10.2018 09:00:00 11,9 11,4 11,0 5 3 11 6 ZZW 1017,9 2,4 0,0
17.10.2018 08:00:00 11,2 10,5 8,8 5 3 18 10 ZZW 1017,5 3,2 0,0
17.10.2018 07:00:00 12,9 11,4 10,9 9 5 14 8 Z 1017,3 4,2 0,0
17.10.2018 06:00:00 13,6 11,1 11,9 11 6 14 8 Z 1016,9 7 0,0
17.10.2018 05:00:00 13,1 10,9 10,8 9 5 11 6 Z 1016,9 8 0,0
17.10.2018 04:00:00 13,1 10,9 9,3 5 3 7 4 Z 1016,9 8 0,0
17.10.2018 03:00:00 13,8 10,9 12,6 11 6 29 16 WZW 1017,1 10 0,0
17.10.2018 02:00:00 16,0 11,2 14,7 9 5 22 12 Z 1017,0 10 0,0
17.10.2018 01:00:00 16,7 11,4 15,7 13 7 22 12 ZZO 1017,0 10 0,0
17.10.2018 00:00:00 16,7 11,8 15,4 9 5 18 10 Z 1017,3 10 0,0
16.10.2018 23:00:00 17,3 12,0 15,6 11 6 18 10 ZZO 1017,5 10 0,0
16.10.2018 22:00:00 16,1 12,1 12,3 8 4 11 6 ZZO 1017,8 9 0,0
16.10.2018 21:00:00 16,6 12,1 11,6 9 5 11 6 ZZO 1017,8 10 0,0
16.10.2018 20:00:00 15,2 12,7 10,8 8 4 7 4 Z 1018,1 10 0,0
16.10.2018 19:00:00 16,9 13,0 12,8 5 3 7 4 ZZW 1017,9 10 0,0
16.10.2018 18:00:00 20,2 13,8 19,3 9 5 14 8 Z 1017,7 10 0,0
16.10.2018 17:00:00 21,4 13,3 21,4 9 5 18 10 ZZW 1017,7 10 0,0
16.10.2018 16:00:00 22,0 12,6 22,1 15 8 25 14 ZZW 1017,5 10 0,0
16.10.2018 15:00:00 22,3 11,7 22,7 13 7 25 14 Z 1017,5 10 0,0
16.10.2018 14:00:00 22,2 14,4 22,3 15 8 22 12 Z 1017,6 10 0,0
16.10.2018 13:00:00 20,8 15,9 21,4 11 6 18 10 Z 1017,7 10 0,0
16.10.2018 12:00:00 19,1 15,7 20,0 8 4 14 8 ZZW 1018,0 9 0,0
16.10.2018 11:00:00 17,1 15,3 16,6 0 0 11 6 N 1017,7 4,0 0,0
16.10.2018 10:00:00 15,3 14,6 15,1 9 5 14 8 Z 1017,5 2,6 0,0
16.10.2018 09:00:00 13,7 13,6 13,3 9 5 14 8 ZZW 1017,3 1,7 0,0
16.10.2018 08:00:00 13,3 13,2 12,5 9 5 11 6 ZZW 1016,7 1,7 0,0
16.10.2018 07:00:00 13,5 13,3 12,9 9 5 11 6 Z 1016,3 2,1 0,0
16.10.2018 06:00:00 14,1 13,8 13,5 9 5 14 8 ZZW 1016,1 2,4 0,0
16.10.2018 05:00:00 14,5 13,9 14,0 11 6 18 10 ZZW 1015,7 2,9 0,0
16.10.2018 04:00:00 14,6 14,0 14,0 9 5 14 8 ZZW 1015,7 3,4 0,0
16.10.2018 03:00:00 15,4 14,4 14,8 8 4 14 8 ZZW 1015,5 4,6 0,0
16.10.2018 02:00:00 15,4 14,4 14,9 8 4 11 6 ZW 1015,2 6 0,0
16.10.2018 01:00:00 15,3 14,2 14,7 5 3 11 6 ZZW 1014,9 7 0,0
16.10.2018 00:00:00 15,8 14,1 14,8 8 4 14 8 Z 1014,8 7 0,0
15.10.2018 23:00:00 16,3 14,1 15,3 8 4 11 6 Z 1014,4 9 0,0
15.10.2018 22:00:00 16,2 14,1 14,8 5 3 11 6 Z 1014,2 10 0,0
15.10.2018 21:00:00 15,9 13,9 14,4 4 2 7 4 ZZW 1014,0 10 0,0
15.10.2018 20:00:00 16,1 13,8 14,5 4 2 11 6 ZW 1013,7 10 0,0
15.10.2018 19:00:00 16,6 13,7 14,9 8 4 14 8 WZW 1013,3 10 0,0
15.10.2018 18:00:00 18,8 13,9 17,7 11 6 18 10 ZW 1012,6 10 0,0
15.10.2018 17:00:00 20,2 14,1 19,7 11 6 22 12 ZW 1012,0 10 0,0
15.10.2018 16:00:00 20,5 13,5 20,0 11 6 32 18 ZW 1011,6 10 0,0
15.10.2018 15:00:00 21,6 13,0 22,2 16 9 25 14 ZZW 1011,3 10 0,0
15.10.2018 14:00:00 21,0 12,0 21,4 16 9 25 14 ZZW 1011,1 10 0,0
15.10.2018 13:00:00 20,6 11,2 21,3 15 8 25 14 ZZW 1011,2 10 0,0
15.10.2018 12:00:00 19,5 12,2 20,1 15 8 22 12 Z 1011,2 10 0,0
15.10.2018 11:00:00 18,3 12,3 19,1 9 5 18 10 ZZO 1010,8 10 0,0
15.10.2018 10:00:00 14,8 12,0 13,2 5 3 7 4 ZO 1010,6 10 0,0
15.10.2018 09:00:00 12,4 11,3 9,9 4 2 11 6 - 1010,3 10 0,0
15.10.2018 08:00:00 11,6 9,9 9,9 2 1 11 6 NW 1009,8 10 0,0
15.10.2018 07:00:00 14,6 11,3 13,6 5 3 14 8 Z 1009,4 10 0,0
15.10.2018 06:00:00 15,8 11,5 14,8 9 5 14 8 ZO 1009,1 10 0,0
15.10.2018 05:00:00 15,2 11,8 13,2 13 7 18 10 ZO 1008,9 10 0,0
15.10.2018 04:00:00 15,0 11,9 11,8 5 3 7 4 ZO 1009,0 10 0,0
15.10.2018 03:00:00 14,6 11,9 12,2 2 1 7 4 OZO 1009,2 10 0,0
15.10.2018 02:00:00 14,6 11,7 12,9 9 5 18 10 WNW 1009,1 10 0,0
15.10.2018 01:00:00 17,6 11,4 16,1 11 6 18 10 Z 1008,7 10 0,0
15.10.2018 00:00:00 18,5 11,3 16,9 13 7 18 10 ZZO 1008,6 10 0,0
14.10.2018 23:00:00 18,6 11,2 15,7 8 4 14 8 ZZO 1008,2 10 0,0
14.10.2018 22:00:00 18,9 11,7 15,3 8 4 11 6 ZZO 1007,9 10 0,0
14.10.2018 21:00:00 16,2 11,9 13,1 5 3 11 6 ZZO 1007,8 10 0,0
14.10.2018 20:00:00 18,5 11,7 15,6 8 4 14 8 Z 1007,6 10 0,0
14.10.2018 19:00:00 20,4 12,1 19,2 11 6 22 12 ZZW 1007,0 10 0,0
14.10.2018 18:00:00 21,5 13,4 20,6 11 6 25 14 Z 1006,6 10 0,0
14.10.2018 17:00:00 21,9 13,4 21,3 18 10 32 18 ZZW 1006,3 10 0,0
14.10.2018 16:00:00 22,8 14,5 22,5 21 11 32 18 Z 1006,4 10 0,0
14.10.2018 15:00:00 22,4 14,7 22,4 16 9 40 21 Z 1006,3 10 0,0

tt = temperatuur
td = dauwpunt
tt 5cm = temperatuur 5cm
ff = windsnelheid
fx = windstoten
dd = windrichting
ppp = luchtdruk
vv = zicht
rr = neerslag

Weerstations in de omgeving